This demonstration page uses our WeatherBlox Daily Observations layout. Learn more.

36.17497, -115.13722

Hourly Observations for July 8, 2015

Temp ( °F °C ) Dew Point ( °F °C ) Humidity (%) Winds ( mph kmh ) Pressure ( in mb ) Visibility ( mi km ) Precip ( " mm )
12:53 am 00:53 Clear 88 31.1 49 9.4 26 26 WSW 7 11 29.71 1006 10 16.0934 0 0
1:53 am 01:53 Clear 86 30 48 8.9 27 27 SSE 5 7 29.71 1006 10 16.0934 0 0
2:53 am 02:53 Clear 83 28.3 50 10 32 32 NE 7 11 29.72 1006 10 16.0934 0 0
3:53 am 03:53 Mostly Clear 82 27.8 51 10.6 34 34 ESE 9 15 29.73 1007 10 16.0934 0 0
4:53 am 04:53 Clear 83 28.3 51 10.6 33 33 SE 12 19 29.74 1007 10 16.0934 0 0
5:53 am 05:53 Sunny 83 28.3 34 1.1 17 17 S 7 11 29.76 1008 10 16.0934 0 0
6:53 am 06:53 Sunny 83 28.3 39 3.9 21 21 VRB 5 7 29.76 1008 10 16.0934 0 0
7:53 am 07:53 Sunny 85 29.4 52 11.1 32 32 S 7 11 29.78 1008 10 16.0934 0 0
8:53 am 08:53 Partly Cloudy 89 31.7 50 10 26 26 E 10 17 29.77 1008 10 16.0934 0 0
9:53 am 09:53 Sunny 90 32.2 49 9.4 24 24 E 12 19 29.75 1008 10 16.0934 0 0
10:53 am 10:53 Sunny 92 33.3 48 8.9 22 22 ESE 8 13 29.74 1007 10 16.0934 0 0
11:53 am 11:53 Sunny 95 35 46 7.8 19 19 SSE 16 26 29.72 1006 10 16.0934 0 0
12:53 pm 12:53 Sunny 95 35 45 7.2 18 18 VRB 7 11 29.68 1005 10 16.0934 0 0
1:53 pm 13:53 Partly Cloudy 97 36.1 41 5 14 14 S 20 31 29.63 1004 10 16.0934 0 0
2:53 pm 14:53 Sunny 100 37.8 36 2.2 11 11 SSW 21 33 29.61 1003 10 16.0934 0 0
3:53 pm 15:53 Sunny 100 37.8 36 2.2 11 11 SW 18 30 29.6 1003 10 16.0934 0 0
4:53 pm 16:53 Sunny 99 37.2 33 0.6 10 10 S 21 33 29.58 1002 10 16.0934 0 0
5:53 pm 17:53 Sunny 98 36.7 33 0.6 10 10 SW 22 35 29.56 1001 10 16.0934 0 0
6:53 pm 18:53 Sunny 96 35.6 33 0.6 11 11 WSW 12 19 29.57 1002 10 16.0934 0 0
7:53 pm 19:53 Sunny 95 35 31 -0.6 10 10 SW 8 13 29.59 1002 10 16.0934 0 0
8:53 pm 20:53 Clear 93 33.9 30 -1.1 10 10 SW 10 17 29.6 1002 10 16.0934 0 0
9:53 pm 21:53 Clear 91 32.8 25 -3.9 9 9 S 12 19 29.62 1003 10 16.0934 0 0
10:53 pm 22:53 Clear 89 31.7 31 -0.6 12 12 SW 9 15 29.63 1004 10 16.0934 0 0
11:53 pm 23:53 Clear 86 30 43 6.1 22 22 SSW 10 17 29.65 1004 10 16.0934 0 0

Powered by AerisWeather